This demonstration page uses our WeatherBlox Daily Observations layout. Learn more.

Left ArrowRight Arrow

39.51506, -84.39828

Hourly Observations for February 5, 2021

Temp ( °F °C ) Dew Point ( °F °C ) Humidity (%) Winds ( mph kmh ) Pressure ( in mb ) Visibility ( mi km ) Precip ( " mm )
12:15 am 00:15 Cloudy 33 0.8 29 -1.4 85 85 WSW 20 31 29.62 1003 10 16 0.00 0.00
12:35 am 00:35 Cloudy 33 0.6 29 -1.6 85 85 W 26 43 29.63 1003 10 16 0.00 0.00
12:55 am 00:55 Cloudy 33 0.3 28 -2.5 82 82 WSW 18 30 29.64 1004 10 16 0.00 0.00
1:15 am 01:15 Cloudy 32 0 28 -2 87 87 W 16 26 29.65 1004 10 16 0.00 0.00
1:35 am 01:35 Cloudy 32 0 26 -3.2 79 79 W 18 30 29.66 1005 10 16 0.00 0.00
1:55 am 01:55 Cloudy 32 -0.2 26 -3.6 78 78 W 14 22 29.68 1005 10 16 0.00 0.00
2:15 am 02:15 Cloudy 31 -0.3 26 -3.4 80 80 WSW 18 30 29.69 1005 10 16 0.00 0.00
2:35 am 02:35 Cloudy 32 -0.2 26 -3.3 80 80 WSW 20 31 29.70 1006 10 16 0.00 0.00
2:55 am 02:55 Cloudy 32 -0.2 26 -3.1 81 81 WSW 26 43 29.71 1006 10 16 0.00 0.00
3:15 am 03:15 Cloudy 31 -0.7 24 -4.4 76 76 W 25 41 29.73 1007 10 16 0.00 0.00
3:35 am 03:35 Cloudy 30 -1 22 -5.4 72 72 W 26 43 29.73 1007 10 16 0.00 0.00
3:55 am 03:55 Cloudy 30 -0.9 23 -5 74 74 WSW 13 20 29.73 1007 10 16 0.00 0.00
4:15 am 04:15 Cloudy 30 -1 24 -4.4 78 78 WSW 14 22 29.74 1007 10 16 0.00 0.00
4:35 am 04:35 Cloudy 30 -1.2 24 -4.5 79 79 W 16 26 29.75 1007 10 16 0.00 0.00
4:55 am 04:55 Cloudy 29 -1.5 22 -5.7 73 73 W 17 28 29.76 1008 10 16 0.00 0.00
5:15 am 05:15 Cloudy 29 -1.6 21 -6 72 72 W 14 22 29.76 1008 10 16 0.00 0.00
5:35 am 05:35 Cloudy 29 -1.8 21 -6 73 73 W 15 24 29.77 1008 10 16 0.00 0.00
5:55 am 05:55 Cloudy 28 -2.5 19 -7.2 70 70 W 16 26 29.78 1009 10 16 0.00 0.00
6:15 am 06:15 Partly Cloudy 26 -3.2 16 -8.7 66 66 WSW 18 30 29.79 1009 10 16 0.00 0.00
6:35 am 06:35 Clear 26 -3.6 17 -8.6 69 69 WSW 17 28 29.80 1009 10 16 0.00 0.00
6:55 am 06:55 Partly Cloudy 25 -3.8 17 -8.6 70 70 WSW 12 19 29.81 1009 10 16 0.00 0.00
7:15 am 07:15 Partly Cloudy 25 -4 17 -8.3 72 72 WSW 12 19 29.82 1010 10 16 0.00 0.00
7:35 am 07:35 Clear 24 -4.2 17 -8.4 73 73 WSW 10 17 29.82 1010 10 16 0.00 0.00
7:55 am 07:55 Sunny 24 -4.4 17 -8.3 75 75 WSW 10 17 29.82 1010 10 16 0.00 0.00
8:15 am 08:15 Partly Cloudy 24 -4.3 16 -8.7 72 72 W 13 20 29.83 1010 10 16 0.00 0.00
8:35 am 08:35 Partly Cloudy 25 -4 15 -9.3 67 67 WSW 15 24 29.84 1010 10 16 0.00 0.00
8:55 am 08:55 Sunny 26 -3.3 17 -8.6 67 67 WSW 13 20 29.83 1010 10 16 0.00 0.00
9:15 am 09:15 Sunny 27 -2.8 17 -8.1 67 67 SW 17 28 29.83 1010 10 16 0.00 0.00
9:35 am 09:35 Sunny 28 -2.3 17 -8.2 64 64 SW 16 26 29.83 1010 10 16 0.00 0.00
9:55 am 09:55 Sunny 29 -1.9 16 -8.7 60 60 WSW 16 26 29.83 1010 10 16 0.00 0.00
10:15 am 10:15 Sunny 29 -1.8 15 -9.4 57 57 WSW 15 24 29.83 1010 10 16 0.00 0.00
10:35 am 10:35 Partly Cloudy 29 -1.6 16 -9 57 57 WSW 18 30 29.84 1010 10 16 0.00 0.00
10:55 am 10:55 Mostly Cloudy 30 -0.9 16 -8.9 55 55 WSW 24 39 29.85 1011 10 16 0.00 0.00
11:15 am 11:15 Partly Cloudy 31 -0.8 17 -8.4 57 57 WSW 18 30 29.84 1010 10 16 0.00 0.00
11:35 am 11:35 Mostly Cloudy 31 -0.8 17 -8.4 57 57 SW 24 39 29.84 1010 10 16 0.00 0.00
11:55 am 11:55 Cloudy 30 -1.2 16 -8.7 57 57 WSW 21 33 29.85 1011 10 16 0.00 0.00
12:15 pm 12:15 Cloudy 31 -0.7 18 -8 58 58 WSW 21 33 29.85 1011 10 16 0.00 0.00
12:35 pm 12:35 Cloudy 32 -0.2 18 -7.9 57 57 WSW 24 39 29.84 1010 10 16 0.00 0.00
12:55 pm 12:55 Cloudy 32 -0.1 19 -7.4 58 58 WSW 22 35 29.84 1010 10 16 0.00 0.00
1:15 pm 13:15 Cloudy 31 -0.3 18 -7.8 57 57 W 22 35 29.85 1011 10 16 0.00 0.00
1:35 pm 13:35 Cloudy 32 -0.2 18 -7.7 57 57 WSW 22 35 29.84 1010 10 16 0.00 0.00
1:55 pm 13:55 Cloudy 32 0.1 19 -7.2 58 58 WSW 17 28 29.83 1010 10 16 0.00 0.00
2:15 pm 14:15 Cloudy 32 0.2 19 -7.1 58 58 WSW 21 33 29.83 1010 10 16 0.00 0.00
2:35 pm 14:35 Cloudy 32 0.2 19 -7.3 57 57 WSW 21 33 29.83 1010 10 16 0.00 0.00
2:55 pm 14:55 Cloudy 33 0.3 19 -7.2 58 58 WSW 30 48 29.84 1011 10 16 0.00 0.00
3:15 pm 15:15 Cloudy 33 0.4 19 -7.2 57 57 WSW 25 41 29.83 1010 10 16 0.00 0.00
3:35 pm 15:35 Cloudy 34 1.2 20 -6.5 57 57 WSW 17 28 29.82 1010 10 16 0.00 0.00
3:55 pm 15:55 Cloudy 33 0.8 20 -6.8 57 57 WSW 17 28 29.82 1010 10 16 0.00 0.00
4:15 pm 16:15 Cloudy 34 0.9 19 -7.1 56 56 WSW 21 33 29.82 1010 10 16 0.00 0.00
4:35 pm 16:35 Cloudy 34 1.1 19 -7.2 54 54 WSW 15 24 29.82 1010 10 16 0.00 0.00
4:55 pm 16:55 Cloudy 34 1.2 19 -7 55 55 WSW 21 33 29.83 1010 10 16 0.00 0.00
5:15 pm 17:15 Partly Cloudy 34 1 20 -6.9 56 56 WSW 20 31 29.82 1010 10 16 0.00 0.00
5:35 pm 17:35 Partly Cloudy 33 0.8 20 -6.8 57 57 WSW 14 22 29.82 1010 10 16 0.00 0.00
5:55 pm 17:55 Mostly Cloudy 33 0.6 20 -6.5 59 59 WSW 9 15 29.82 1010 10 16 0.00 0.00
6:15 pm 18:15 Cloudy 33 0.6 21 -6.3 60 60 WSW 9 15 29.84 1011 10 16 0.00 0.00
6:35 pm 18:35 Cloudy 33 0.4 21 -6.1 62 62 SW 8 13 29.84 1011 10 16 0.00 0.00
6:55 pm 18:55 Mostly Cloudy 32 0 21 -6 64 64 SW 8 13 29.84 1011 10 16 0.00 0.00
7:15 pm 19:15 Partly Cloudy 30 -1.1 21 -6.1 69 69 SW 8 13 29.86 1011 10 16 0.00 0.00
7:35 pm 19:35 Partly Cloudy 30 -1 21 -5.9 70 70 SW 7 11 29.86 1011 10 16 0.00 0.00
7:55 pm 19:55 Partly Cloudy 30 -1.2 21 -6.3 69 69 SW 6 9 29.88 1012 10 16 0.00 0.00
8:15 pm 20:15 Partly Cloudy 30 -1.2 20 -6.4 68 68 SW 7 11 29.88 1012 10 16 0.00 0.00
8:35 pm 20:35 Mostly Cloudy 29 -1.4 22 -5.5 74 74 SW 7 11 29.89 1012 10 16 0.00 0.00
8:55 pm 20:55 Mostly Cloudy 29 -1.5 22 -5.6 74 74 SW 6 9 29.89 1012 10 16 0.00 0.00
9:15 pm 21:15 Cloudy 30 -1.1 22 -5.5 72 72 SW 7 11 29.90 1012 10 16 0.00 0.00
9:35 pm 21:35 Cloudy 30 -1.2 22 -5.3 74 74 WSW 5 7 29.90 1012 10 16 0.00 0.00
9:55 pm 21:55 Mostly Cloudy 30 -1 22 -5.8 70 70 WSW 3 6 29.91 1013 10 16 0.00 0.00
10:15 pm 22:15 Mostly Cloudy 31 -0.8 22 -5.7 70 70 WSW 7 11 29.92 1013 10 16 0.00 0.00
10:35 pm 22:35 Cloudy 31 -0.7 22 -5.5 70 70 WSW 7 11 29.92 1013 10 16 0.00 0.00
10:55 pm 22:55 Cloudy 31 -0.5 22 -5.6 69 69 WSW 8 13 29.93 1013 10 16 0.00 0.00
11:15 pm 23:15 Cloudy 31 -0.6 22 -5.6 69 69 W 10 17 29.93 1013 10 16 0.00 0.00
11:35 pm 23:35 Cloudy 30 -0.9 20 -6.4 67 67 W 10 17 29.94 1014 10 16 0.00 0.00
11:55 pm 23:55 Cloudy 30 -1.2 19 -7 65 65 W 12 19 29.95 1014 10 16 0.00 0.00

Powered by AerisWeather